TimeEST,TemperatureF,Dew PointF,Humidity,Sea Level PressureIn,VisibilityMPH,Wind Direction,Wind SpeedMPH,Gust SpeedMPH,PrecipitationIn,Events,Conditions,WindDirDegrees,DateUTC
12:54 AM,32.0,23.0,69,30.03,-9999.0,NNE,5.8,-,N/A,,Unknown,30,2013-01-18 05:54:00
1:54 AM,28.9,19.9,69,30.10,-9999.0,North,8.1,-,N/A,,Unknown,10,2013-01-18 06:54:00
2:54 AM,27.0,18.0,69,30.11,-9999.0,NE,5.8,-,N/A,,Unknown,50,2013-01-18 07:54:00
3:54 AM,27.0,18.0,69,30.13,-9999.0,Variable,3.5,-,N/A,,Unknown,0,2013-01-18 08:54:00
4:54 AM,26.1,17.1,69,30.17,-9999.0,Calm,Calm,-,N/A,,Unknown,0,2013-01-18 09:54:00
5:54 AM,27.0,15.1,61,30.23,-9999.0,Variable,5.8,-,N/A,,Unknown,0,2013-01-18 10:54:00
6:54 AM,25.0,12.0,58,30.28,-9999.0,North,6.9,-,N/A,,Unknown,10,2013-01-18 11:54:00
7:54 AM,23.0,9.0,55,30.34,-9999.0,Variable,3.5,-,N/A,,Unknown,0,2013-01-18 12:54:00
8:54 AM,24.1,10.9,57,30.39,-9999.0,NNE,8.1,-,N/A,,Unknown,30,2013-01-18 13:54:00
9:54 AM,23.0,7.0,50,30.45,-9999.0,Variable,6.9,16.1,N/A,,Unknown,0,2013-01-18 14:54:00
10:54 AM,24.1,3.9,42,30.45,-9999.0,NNW,9.2,-,0.02,,Unknown,340,2013-01-18 15:54:00
11:54 AM,25.0,3.0,39,30.45,-9999.0,North,11.5,19.6,N/A,,Unknown,360,2013-01-18 16:54:00
12:54 PM,26.1,3.0,37,30.43,-9999.0,Calm,Calm,-,N/A,,Unknown,0,2013-01-18 17:54:00
1:54 PM,26.1,1.0,34,30.44,-9999.0,Variable,4.6,-,0.02,,Unknown,0,2013-01-18 18:54:00
2:54 PM,28.0,3.0,34,30.44,-9999.0,Calm,Calm,-,0.02,,Unknown,0,2013-01-18 19:54:00
3:54 PM,27.0,1.9,34,30.45,-9999.0,WNW,3.5,-,N/A,,Unknown,300,2013-01-18 20:54:00
4:54 PM,26.1,1.9,35,30.45,-9999.0,SW,3.5,-,N/A,,Unknown,220,2013-01-18 21:54:00
5:54 PM,24.1,7.0,48,30.47,-9999.0,Calm,Calm,-,N/A,,Unknown,0,2013-01-18 22:54:00
6:54 PM,24.1,8.1,51,30.47,-9999.0,Calm,Calm,-,N/A,,Unknown,0,2013-01-18 23:54:00
7:54 PM,23.0,9.0,55,30.47,-9999.0,Calm,Calm,-,N/A,,Unknown,0,2013-01-19 00:54:00
8:54 PM,24.1,9.0,53,30.47,-9999.0,Calm,Calm,-,0.02,,Unknown,0,2013-01-19 01:54:00
9:54 PM,24.1,10.0,55,30.44,-9999.0,Variable,5.8,-,N/A,,Unknown,0,2013-01-19 02:54:00
10:54 PM,24.1,9.0,53,30.42,-9999.0,Calm,Calm,-,N/A,,Unknown,0,2013-01-19 03:54:00
11:54 PM,25.0,10.0,53,30.39,-9999.0,Variable,5.8,-,N/A,,Unknown,0,2013-01-19 04:54:00